DW8016 Weather Reports


time (UTC)temp
F
wind
direction
speed
knots
gust
knots
rain 1hr
in
rain 24hr
in
rain mn
in
humidity
%
barometer
mb
20260904174444 91 320 0.0 3.5 0.00 0.93 0.09 55 1013.1
20260904172402 92 258 0.9 4.3 0.00 0.93 0.09 54 1013.3
20260904171330 91 346 0.0 4.3 0.00 0.93 0.09 57 1013.4
20260904170256 90 349 0.9 4.3 0.00 0.93 0.09 57 1013.3
20260904164130 90 337 0.0 2.6 0.00 0.93 0.09 59 1013.6
20260904163118 91 28 0.9 5.2 0.00 0.93 0.09 58 1013.7
20260904162134 91 302 0.9 5.2 0.00 0.93 0.09 58 1013.9
20260904161102 89 339 0.0 3.5 0.00 0.93 0.09 62 1014.0
20260904160108 89 313 0.0 5.2 0.00 0.93 0.09 63 1013.9
20260904155108 90 307 1.7 5.2 0.00 0.93 0.09 59 1014.0
20260904154041 88 338 0.0 5.2 0.00 0.93 0.09 64 1013.9
20260904153032 85 355 0.9 4.3 0.00 0.93 0.09 69 1013.9
20260904150841 86 314 0.9 3.5 0.00 0.93 0.09 65 1014.1
20260904145829 87 314 0.9 4.3 0.00 0.93 0.09 65 1014.2
20260904144756 84 335 0.9 4.3 0.00 0.93 0.09 70 1014.4
20260904142608 85 306 0.0 2.6 0.00 0.93 0.09 70 1014.3
20260904105332 72 343 0.0 0.0 0.00 0.93 0.09 94 1013.8
20260904104326 72 343 0.0 0.0 0.00 0.93 0.09 95 1013.9
20260904103346 72 343 0.0 0.0 0.00 0.93 0.09 95 1014.0
20260904102331 72 343 0.0 0.0 0.00 0.93 0.09 95 1013.6
20260904101314 72 343 0.0 0.0 0.00 0.93 0.09 95 1013.8
20260904100338 72 343 0.0 1.7 0.00 0.93 0.09 94 1013.8
20260904095352 72 340 0.0 2.6 0.00 0.93 0.09 95 1013.5
20260904094347 72 215 0.0 0.0 0.00 0.93 0.09 94 1012.8
20260904093317 72 215 0.0 0.0 0.00 0.93 0.09 94 1012.7
20260904092248 72 208 0.0 0.0 0.00 0.93 0.09 94 1012.4
20260904091214 72 208 0.0 0.0 0.00 0.93 0.09 94 1012.6
20260904090226 72 208 0.0 0.0 0.00 0.93 0.09 94 1012.7
20260904084046 72 208 0.0 0.0 0.00 0.93 0.09 94 1012.8
20260904083103 72 208 0.0 0.0 0.00 0.93 0.09 94 1012.9
20260904082032 72 208 0.0 0.0 0.00 0.93 0.09 94 1013.0
20260904081005 72 208 0.0 0.0 0.00 0.93 0.09 94 1012.9
20260904075949 72 208 0.0 0.0 0.00 0.93 0.09 94 1013.0
20260904074934 72 208 0.0 0.0 0.00 0.93 0.09 94 1013.1
20260904073911 72 208 0.0 0.0 0.00 0.93 0.09 94 1013.2
20260904064232 72 270 0.0 0.0 0.00 0.93 0.09 94 1012.8
20260904063235 72 270 0.0 0.0 0.00 0.93 0.09 94 1012.6
20260904062219 72 270 0.0 0.0 0.00 0.93 0.09 93 1012.7
20260904061236 72 270 0.0 0.0 0.00 0.93 0.09 93 1012.5
20260904060249 72 270 0.0 0.0 0.00 0.93 0.09 93 1012.3
20260904055248 72 270 0.0 0.0 0.00 0.93 0.09 93 1012.1
20260904054240 72 270 0.0 0.0 0.00 0.93 0.09 93 1012.6
20260904052101 72 269 0.9 3.5 0.00 0.92 0.08 93 1013.2
20260904051028 72 202 0.0 2.6 0.00 0.91 0.06 93 1013.1
20260904045954 72 196 0.0 0.9 0.00 0.91 0.06 93 1013.3
20260904045013 72 196 0.0 0.0 0.00 0.91 0.06 93 1013.8
20260904043946 72 196 0.0 0.0 0.00 0.91 0.06 92 1014.7
20260904042922 72 168 0.0 1.7 0.05 0.91 0.06 92 1015.4
20260904041848 72 49 0.0 0.0 0.17 0.91 0.06 91 1015.5
20260904035645 73 59 0.0 29.5 1.23 0.78 0.80 88 1016.0
20260904033523 84 283 0.0 2.6 0.00 0.00 0.00 81 1014.5
20260904032541 83 290 0.0 2.6 0.00 0.00 0.00 81 1013.3
20260904031539 83 238 0.0 0.9 0.00 0.00 0.00 80 1012.8
20260904030506 83 186 0.0 0.0 0.00 0.00 0.00 81 1012.7
20260904025500 84 186 0.0 0.0 0.00 0.00 0.00 81 1013.0
20260904024508 84 186 0.0 0.0 0.00 0.00 0.00 80 1013.1
20260904023442 84 186 0.0 0.0 0.00 0.00 0.00 80 1013.4
20260904022417 84 186 0.0 0.0 0.00 0.00 0.00 79 1013.4
20260904021440 84 186 0.0 0.0 0.00 0.00 0.00 79 1013.2
20260904020441 84 186 0.0 0.0 0.00 0.00 0.00 78 1013.4
20260904015421 85 186 0.0 0.0 0.00 0.00 0.00 78 1013.4
20260904014353 85 193 0.0 2.6 0.00 0.00 0.00 77 1013.3
20260904013346 85 242 0.0 2.6 0.00 0.00 0.00 77 1013.4
20260904012357 85 225 0.0 0.0 0.00 0.00 0.00 77 1013.4
20260904011417 85 209 0.0 0.9 0.00 0.00 0.00 76 1013.2
20260904010403 85 226 0.0 3.5 0.00 0.00 0.00 75 1013.3
20260904004229 86 244 0.0 0.9 0.00 0.00 0.00 74 1013.6
20260904003222 86 254 0.0 2.6 0.00 0.00 0.00 73 1013.9
20260903235954 87 273 0.0 3.5 0.00 0.00 0.00 72 1013.9
20260903235017 87 227 0.0 0.0 0.00 0.00 0.00 71 1013.8
20260903233947 88 205 0.0 2.6 0.00 0.00 0.00 71 1013.4
20260903232914 88 247 0.0 4.3 0.00 0.00 0.00 70 1013.2
20260903231932 88 219 0.9 4.3 0.00 0.00 0.00 69 1013.1
20260903230926 89 248 0.0 7.0 0.00 0.00 0.00 68 1013.2
20260903225853 89 273 0.0 7.0 0.00 0.00 0.00 67 1013.2
20260903224830 90 188 0.0 4.3 0.00 0.00 0.00 66 1013.0
20260903223844 90 270 1.7 7.0 0.00 0.00 0.00 64 1012.8
20260903222829 91 219 1.7 8.7 0.00 0.00 0.00 63 1012.9
20260903221756 91 138 2.6 0.9 0.00 0.00 0.00 63 1012.7
20260903220816 92 289 3.5 8.7 0.00 0.00 0.00 62 1012.8
20260903215743 92 222 2.6 10.4 0.00 0.00 0.00 62 1012.9
20260903214720 92 242 2.6 10.4 0.00 0.00 0.00 62 1012.7
20260903213715 92 200 1.7 7.8 0.00 0.00 0.00 62 1012.8
20260903211524 93 193 1.7 8.7 0.00 0.00 0.00 61 1012.9
20260903210526 93 273 2.6 9.6 0.00 0.00 0.00 60 1013.0
20260903204407 94 257 1.7 8.7 0.00 0.00 0.00 58 1013.1
20260903203352 94 243 1.7 7.0 0.00 0.00 0.00 57 1013.2
20260903202404 94 267 1.7 7.8 0.00 0.00 0.00 57 1013.3
20260903201336 94 314 2.6 7.8 0.00 0.00 0.00 57 1013.5
20260903195211 94 270 1.7 7.0 0.00 0.00 0.00 56 1013.9
20260903194144 94 261 1.7 7.0 0.00 0.00 0.00 57 1014.1
20260903193141 93 275 0.9 5.2 0.00 0.00 0.00 58 1014.2
20260903192146 93 279 0.9 5.2 0.00 0.00 0.00 56 1014.3
20260903191121 92 231 0.0 7.0 0.00 0.00 0.00 58 1014.5
20260903190109 92 260 0.9 7.0 0.00 0.00 0.00 59 1014.6
20260903183946 93 228 0.9 9.6 0.00 0.00 0.00 59 1014.8
20260903182935 92 267 2.6 9.6 0.00 0.00 0.00 57 1014.6
20260903181918 92 286 2.6 7.0 0.00 0.21 0.00 58 1014.9
20260903180903 91 268 0.9 4.3 0.00 0.37 0.00 60 1015.0
20260903175915 91 244 0.0 2.6 0.00 0.39 0.00 61 1015.0
20260903174936 91 271 0.9 3.5 0.00 0.39 0.00 59 1014.9